"Pseudo-MPEC" for C14YXD5

Created 2025 Jul 7 20:35:05 UT using Find_Orb

Click here for an explanation of pseudo-MPECs

 
 Astrometry: 
     C14YXD5* C2025 07 06.39542422 43 22.444-06 14 28.57   ~76Ao 22.11GVNEOCPV00
     C14YXD5  C2025 07 06.40102522 43 26.062-06 14 05.96   ~76Ao 22.09GVNEOCPV00
     C14YXD5  C2025 07 06.40661322 43 29.608-06 13 43.64   ~76Ao 22.07GVNEOCPV00
     C14YXD5  C2025 07 06.41220522 43 33.186-06 13 20.86   ~76Ao 22.25GVNEOCPV00
     C14YXD5  C2025 07 06.46130822 44 04.535-06 10 03.40   ~76Co 22.02GVNEOCPV00
     C14YXD5  C2025 07 06.46192822 44 04.945-06 10 01.16   ~76Co 22.08GVNEOCPV00
     C14YXD5  C2025 07 06.46254722 44 05.334-06 09 58.46   ~76Co 21.87GVNEOCPV00
     C14YXD5  C2025 07 06.46316722 44 05.712-06 09 56.12   ~76Co 22.22GVNEOCPV00
     C14YXD5  C2025 07 07.44508322 54 59.202-05 03 35.82   ~77D5 22.21GVNEOCPV00
     C14YXD5  C2025 07 07.44581322 54 59.681-05 03 32.80   ~77D5 22.27GVNEOCPV00
     C14YXD5  C2025 07 07.44650022 55 00.127-05 03 29.56   ~77D5 21.84GVNEOCPV00
     C14YXD5  C2025 07 07.44719022 55 00.534-05 03 27.25   ~77D5 22.13GVNEOCPV00

Station data:
(V00) Kitt Peak-Bok  (N31.963125 W111.600190)  US/Arizona.  Observers T. A.
   Pruyne, B. M. Africano, E. J. Christensen, G. A. Farneth, D. C. Fuls, A.
   R. Gibbs, A. D. Grauer, H. Gröller, J. A. Johnson, R. A. Kowalski, S. M.
   Larson, G. J. Leonard, D. Rankin, R. L. Seaman, F. C. Shelly, K. W.
   Wierzchoś. 2.25-m reflector + 4x4K mosaic CCD.

Orbital elements:  C14YXD5
   Perihelion 2025 Jul 30.16202 +/- 1.1 TT =  3:53:18 (JD 2460886.66202)
Epoch 2025 Jul  7.0 TT = JDT 2460863.5   Earth MOID: 0.0276   Ma: 0.0015
M 353.07758204 +/- 0.27             (J2000 ecliptic)             AutoNEOCP
n   0.29886935 +/- 0.0117           Peri.  120.65140 +/- 4.9
a   2.21555121 +/- 0.0577           Node   194.89199 +/- 3.5
e   0.5298913 +/- 0.0127            Incl.    0.17702 +/- 0.006
P   3.29779                H 25.13  G  0.15   U  9.8
q 1.04154984 +/- 0.00206    Q 3.38955258 +/- 0.116
From 12 observations 2025 July 6-7 (25.2 hr); mean residual 0".17
Residuals in arcseconds: 
250706 V00  .12-  .13-    250706 V00  .05-  .12+    250707 V00  .15-  .14-    
250706 V00  .33+  .02+    250706 V00  .17+  .14-    250707 V00  .10+  .09-    
250706 V00  .12-  .09-    250706 V00  .08+  .07+    250707 V00  .25+  .36+    
250706 V00  .11-  .24+    250706 V00  .18-  .09-    250707 V00  .20-  .13-    

Ephemerides (geocentric):
Date (UTC) HH   RA             Dec           delta  r     elong  mag " sig PA
---- --------  ------------   ------------  ------ ------ -----  --- --------
2025 07 07 21  22 59 42.718   -04 33 36.90  .10777 1.0765 121.3 22.4 8.35  79
2025 07 07 22  23 00 10.207   -04 30 47.18  .10777 1.0764 121.2 22.4 9.42  77
2025 07 07 23  23 00 37.685   -04 27 57.45  .10777 1.0762 121.1 22.4 10.5  76
2025 07 08 00  23 01 05.150   -04 25 07.71  .10777 1.0761 121.0 22.4 11.7  75
2025 07 08 01  23 01 32.603   -04 22 17.96  .10777 1.0760 120.9 22.4 12.9  75
2025 07 08 02  23 02 00.043   -04 19 28.21  .10778 1.0758 120.8 22.4 14.2  74
2025 07 08 03  23 02 27.470   -04 16 38.47  .10778 1.0757 120.8 22.4 15.5  73
2025 07 08 04  23 02 54.884   -04 13 48.72  .10779 1.0756 120.7 22.4 16.9  73
2025 07 08 05  23 03 22.284   -04 10 58.97  .10779 1.0755 120.6 22.4 18.3  72
2025 07 08 06  23 03 49.671   -04 08 09.24  .10780 1.0753 120.5 22.4 19.8  72
2025 07 08 07  23 04 17.045   -04 05 19.51  .10780 1.0752 120.4 22.4 21.3  72
2025 07 08 08  23 04 44.404   -04 02 29.79  .10781 1.0751 120.3 22.4 22.9  71
2025 07 08 09  23 05 11.750   -03 59 40.09  .10782 1.0750 120.3 22.5 24.5  71
2025 07 08 10  23 05 39.081   -03 56 50.39  .10782 1.0748 120.2 22.5 26.1  71
2025 07 08 11  23 06 06.397   -03 54 00.72  .10783 1.0747 120.1 22.5 27.8  71
2025 07 08 12  23 06 33.699   -03 51 11.07  .10784 1.0746 120.0 22.5 29.6  70
2025 07 08 13  23 07 00.986   -03 48 21.44  .10785 1.0745 119.9 22.5 31.4  70
2025 07 08 14  23 07 28.258   -03 45 31.83  .10786 1.0744 119.8 22.5 33.2  70
2025 07 08 15  23 07 55.515   -03 42 42.25  .10787 1.0742 119.8 22.5 35.1  70
2025 07 08 16  23 08 22.756   -03 39 52.69  .10788 1.0741 119.7 22.5 37.0  70
2025 07 08 17  23 08 49.982   -03 37 03.17  .10789 1.0740 119.6 22.5 39.0  70
2025 07 08 18  23 09 17.191   -03 34 13.68  .10790 1.0739 119.5 22.5 41.0  69
2025 07 08 19  23 09 44.385   -03 31 24.22  .10792 1.0737 119.4 22.5 43.1  69
2025 07 08 20  23 10 11.562   -03 28 34.80  .10793 1.0736 119.3 22.5 45.2  69
2025 07 08 21  23 10 38.723   -03 25 45.42  .10794 1.0735 119.3 22.5 47.4  69
2025 07 08 22  23 11 05.867   -03 22 56.09  .10795 1.0734 119.2 22.5 49.6  69
2025 07 08 23  23 11 32.995   -03 20 06.79  .10797 1.0732 119.1 22.5 51.9  69
2025 07 09 00  23 12 00.105   -03 17 17.54  .10798 1.0731 119.0 22.5 54.2  69
2025 07 09 01  23 12 27.198   -03 14 28.34  .10800 1.0730 118.9 22.5 56.5  69
2025 07 09 02  23 12 54.274   -03 11 39.19  .10801 1.0729 118.9 22.5 58.9  69
2025 07 09 03  23 13 21.333   -03 08 50.09  .10803 1.0728 118.8 22.5 61.3  69
2025 07 09 04  23 13 48.373   -03 06 01.05  .10804 1.0726 118.7 22.5 63.8  69
2025 07 09 05  23 14 15.396   -03 03 12.06  .10806 1.0725 118.6 22.5 66.4  69
2025 07 09 06  23 14 42.400   -03 00 23.13  .10808 1.0724 118.5 22.5 68.9  69
2025 07 09 07  23 15 09.386   -02 57 34.26  .10810 1.0723 118.4 22.5 71.6  68
2025 07 09 08  23 15 36.354   -02 54 45.45  .10811 1.0722 118.4 22.5 74.2  68
2025 07 09 09  23 16 03.303   -02 51 56.71  .10813 1.0720 118.3 22.5 76.9  68
2025 07 09 10  23 16 30.233   -02 49 08.04  .10815 1.0719 118.2 22.5 79.7  68
2025 07 09 11  23 16 57.145   -02 46 19.43  .10817 1.0718 118.1 22.5 82.5  68
2025 07 09 12  23 17 24.037   -02 43 30.90  .10819 1.0717 118.0 22.5 85.3  68
2025 07 09 13  23 17 50.909   -02 40 42.44  .10821 1.0716 117.9 22.5 88.2  68
2025 07 09 14  23 18 17.762   -02 37 54.05  .10823 1.0714 117.9 22.5 91.1  68
2025 07 09 15  23 18 44.596   -02 35 05.74  .10825 1.0713 117.8 22.5 94.1  68
2025 07 09 16  23 19 11.409   -02 32 17.52  .10828 1.0712 117.7 22.5 97.1  68
2025 07 09 17  23 19 38.202   -02 29 29.37  .10830 1.0711 117.6 22.5  100  68
2025 07 09 18  23 20 04.975   -02 26 41.30  .10832 1.0710 117.5 22.5  103  68
2025 07 09 19  23 20 31.728   -02 23 53.33  .10835 1.0709 117.5 22.5  106  68
2025 07 09 20  23 20 58.460   -02 21 05.43  .10837 1.0707 117.4 22.5  110  68